QPF
0.00 0.00 0.00 0.00 0.00 0.00 0.00 0.00 0.00 0.00 0.00 0.00 0.00 0.00 0.00 0.00 0.00 0.00 0.00 0.00 0.00 0.00 0.00 0.00 0.00 0.00 0.00 0.00 0.00 0.00 0.00 0.00 0.00 0.00 0.00 0.00 0.00 0.00 0.00 0.00 0.00 0.00 0.00 0.00 0.00 0.00 0.00 0.00 0.00 0.00 0.00 0.00 0.00 0.00 0.00 0.00 0.00 0.00 0.00 0.00 0.00 0.00 0.00
0.00 0.00 0.00 0.00 0.00 0.00 0.00 0.00 0.00 0.00 0.00 0.00 0.00 0.00 0.00 0.00 0.00 0.00 0.00 0.00 0.00 0.00 0.00 0.00 0.00 0.00 0.00 0.00 0.00 0.00 0.00 0.00 0.00 0.00 0.00 0.00 0.00 0.00 0.00 0.00 0.00 0.00 0.00 0.00 0.00 0.00 0.00 0.00 0.00 0.00 0.00 0.00 0.00 0.00 0.00 0.00 0.00 0.00 0.00 0.00 0.00 0.00 0.00
0.00 0.00 0.00 0.00 0.00 0.00 0.00 0.00 0.00 0.00 0.00 0.00 0.00 0.00 0.00 0.00 0.00 0.00 0.00 0.00 0.00 0.00 0.00 0.00 0.00 0.00 0.00 0.00 0.00 0.00 0.00 0.00 0.00 0.00 0.00 0.00 0.00 0.00 0.00 0.00 0.00 0.00 0.00 0.00 0.00 0.00 0.00 0.00 0.00 0.00 0.00 0.00 0.00 0.00 0.00 0.00 0.00 0.00 0.00 0.00 0.00 0.00 0.00
0.00 0.00 0.00 0.00 0.00 0.00 0.00 0.00 0.00 0.00 0.00 0.00 0.00 0.00 0.00 0.00 0.00 0.00 0.00 0.00 0.00 0.00 0.00 0.00 0.00 0.00 0.00 0.00 0.00 0.00 0.00 0.00 0.00 0.00 0.00 0.00 0.00 0.00 0.00 0.00 0.00 0.00 0.00 0.00 0.00 0.00 0.00 0.00 0.00 0.00 0.00 0.00 0.00 0.00 0.00 0.00 0.00 0.00 0.00 0.00 0.00 0.00 0.00
0.00 0.00 0.00 0.00 0.00 0.00 0.00 0.00 0.00 0.00 0.00 0.00 0.00 0.00 0.00 0.00 0.00 0.00 0.00 0.00 0.00 0.00 0.00 0.00 0.00 0.00 0.00 0.00 0.00 0.00 0.00 0.00 0.00 0.00 0.00 0.00 0.00 0.00 0.00 0.00 0.00 0.00 0.00 0.00 0.00 0.00 0.00 0.00 0.00 0.00 0.00 0.00 0.00 0.00 0.00 0.00 0.00 0.00 0.00 0.00 0.00 0.00 0.00
0.00 0.00 0.00 0.00 0.00 0.00 0.00 0.00 0.00 0.00 0.00 0.00 0.00 0.00 0.00 0.00 0.00 0.00 0.00 0.00 0.00 0.00 0.00 0.00 0.00 0.00 0.00 0.00 0.00 0.00 0.00 0.00 0.00 0.00 0.00 0.00 0.00 0.00 0.00 0.00 0.00 0.00 0.00 0.00 0.00 0.00 0.00 0.00 0.00 0.00 0.00 0.00 0.00 0.00 0.00 0.00 0.00 0.00 0.00 0.00 0.00 0.00 0.00
0.00 0.00 0.00 0.00 0.00 0.00 0.00 0.00 0.00 0.00 0.00 0.00 0.00 0.00 0.00 0.00 0.00 0.00 0.00 0.00 0.00 0.00 0.00 0.00 0.00 0.00 0.00 0.00 0.00 0.00 0.00 0.00 0.00 0.00 0.00 0.00 0.00 0.00 0.00 0.00 0.00 0.00 0.00 0.00 0.00 0.00 0.00 0.00 0.00 0.00 0.00 0.00 0.00 0.00 0.00 0.00 0.00 0.00 0.00 0.00 0.00 0.00 0.00
0.00 0.00 0.00 0.00 0.00 0.00 0.00 0.00 0.00 0.00 0.00 0.00 0.00 0.00 0.00 0.00 0.00 0.00 0.00 0.00 0.00 0.00 0.00 0.00 0.00 0.00 0.00 0.00 0.00 0.00 0.00 0.00 0.00 0.00 0.00 0.00 0.00 0.00 0.00 0.00 0.00 0.00 0.00 0.00 0.00 0.00 0.00 0.00 0.00 0.00 0.00 0.00 0.00 0.00 0.00 0.00 0.00 0.00 0.00 0.00 0.00 0.00 0.00
0.00 0.00 0.00 0.00 0.00 0.00 0.00 0.00 0.00 0.00 0.00 0.00 0.00 0.00 0.00 0.00 0.00 0.00 0.00 0.00 0.00 0.00 0.00 0.00 0.00 0.00 0.00 0.00 0.00 0.00 0.00 0.00 0.00 0.00 0.00 0.00 0.00 0.00 0.00 0.00 0.00 0.00 0.00 0.00 0.00 0.00 0.00 0.00 0.00 0.00 0.00 0.00 0.00 0.00 0.00 0.00 0.00 0.00 0.00 0.00 0.00 0.00 0.00
0.00 0.00 0.00 0.00 0.00 0.00 0.00 0.00 0.00 0.00 0.00 0.00 0.00 0.00 0.00 0.00 0.00 0.00 0.00 0.00 0.00 0.00 0.00 0.00 0.00 0.00 0.00 0.00 0.00 0.00 0.00 0.00 0.00 0.00 0.00 0.00 0.00 0.00 0.00 0.00 0.00 0.00 0.00 0.00 0.00 0.00 0.00 0.00 0.00 0.00 0.00 0.00 0.00 0.00 0.00 0.00 0.00 0.00 0.00 0.00 0.00 0.00 0.00
0.00 0.00 0.00 0.00 0.00 0.00 0.00 0.00 0.00 0.00 0.00 0.00 0.00 0.00 0.00 0.00 0.00 0.00 0.00 0.00 0.00 0.00 0.00 0.00 0.00 0.00 0.00 0.00 0.00 0.00 0.00 0.00 0.00 0.00 0.00 0.00 0.00 0.00 0.00 0.00 0.00 0.00 0.00 0.00 0.00 0.00 0.00 0.00 0.00 0.00 0.00 0.00 0.00 0.00 0.00 0.00 0.00 0.00 0.00 0.00 0.00 0.00 0.00
0.00 0.00 0.00 0.00 0.00 0.00 0.00 0.00 0.00 0.00 0.00 0.00 0.00 0.00 0.00 0.00 0.00 0.00 0.00 0.00 0.00 0.00 0.00 0.00 0.00 0.00 0.00 0.00 0.00 0.00 0.00 0.00 0.00 0.00 0.00 0.00 0.00 0.00 0.00 0.00 0.00 0.00 0.00 0.00 0.00 0.00 0.00 0.00 0.00 0.00 0.00 0.00 0.00 0.00 0.00 0.00 0.00 0.00 0.00 0.00 0.00 0.00 0.00
0.00 0.00 0.00 0.00 0.00 0.00 0.00 0.00 0.00 0.00 0.00 0.00 0.00 0.00 0.00 0.00 0.00 0.00 0.00 0.00 0.00 0.00 0.00 0.00 0.00 0.00 0.00 0.00 0.00 0.00 0.00 0.00 0.00 0.00 0.00 0.00 0.00 0.00 0.00 0.00 0.00 0.00 0.00 0.00 0.00 0.00 0.00 0.00 0.00 0.00 0.00 0.00 0.00 0.00 0.00 0.00 0.00 0.00 0.00 0.00 0.00 0.00 0.00
0.00 0.00 0.00 0.00 0.00 0.00 0.00 0.00 0.00 0.00 0.00 0.00 0.00 0.00 0.00 0.00 0.00 0.00 0.00 0.00 0.00 0.00 0.00 0.00 0.00 0.00 0.00 0.00 0.00 0.00 0.00 0.00 0.00 0.00 0.00 0.00 0.00 0.00 0.00 0.00 0.00 0.00 0.00 0.00 0.00 0.00 0.00 0.00 0.00 0.00 0.00 0.00 0.00 0.00 0.00 0.00 0.00 0.00 0.00 0.00 0.00 0.00 0.01
0.00 0.00 0.00 0.00 0.00 0.00 0.00 0.00 0.00 0.00 0.00 0.00 0.00 0.00 0.00 0.00 0.00 0.00 0.00 0.00 0.00 0.00 0.00 0.00 0.00 0.00 0.00 0.00 0.00 0.00 0.00 0.00 0.00 0.00 0.00 0.00 0.00 0.00 0.00 0.00 0.00 0.00 0.00 0.00 0.00 0.00 0.00 0.00 0.00 0.00 0.00 0.00 0.00 0.00 0.00 0.00 0.00 0.00 0.00 0.00 0.00 0.01 0.00
0.00 0.00 0.00 0.00 0.00 0.00 0.00 0.00 0.00 0.00 0.00 0.00 0.00 0.00 0.00 0.00 0.00 0.00 0.00 0.00 0.00 0.00 0.00 0.00 0.00 0.00 0.00 0.00 0.00 0.00 0.00 0.00 0.00 0.00 0.00 0.00 0.00 0.00 0.00 0.00 0.00 0.00 0.00 0.00 0.00 0.00 0.00 0.00 0.00 0.00 0.00 0.00 0.00 0.00 0.00 0.00 0.00 0.00 0.00 0.00 0.00 0.01 0.00
0.00 0.00 0.00 0.00 0.00 0.00 0.00 0.00 0.00 0.00 0.00 0.00 0.00 0.00 0.00 0.00 0.00 0.00 0.00 0.00 0.00 0.00 0.00 0.00 0.00 0.00 0.00 0.00 0.00 0.00 0.00 0.00 0.00 0.00 0.00 0.00 0.00 0.00 0.00 0.00 0.00 0.00 0.00 0.00 0.00 0.00 0.00 0.00 0.00 0.00 0.00 0.00 0.00 0.00 0.00 0.00 0.00 0.00 0.00 0.00 0.00 0.00 0.00
0.00 0.00 0.00 0.00 0.00 0.00 0.00 0.00 0.00 0.00 0.00 0.00 0.00 0.00 0.00 0.00 0.00 0.00 0.00 0.00 0.00 0.00 0.00 0.00 0.00 0.00 0.00 0.00 0.00 0.00 0.00 0.00 0.00 0.00 0.00 0.00 0.00 0.00 0.00 0.00 0.00 0.00 0.00 0.00 0.00 0.00 0.00 0.00 0.00 0.00 0.00 0.00 0.00 0.00 0.00 0.00 0.00 0.00 0.00 0.00 0.00 0.00 0.00
0.00 0.00 0.00 0.00 0.00 0.00 0.00 0.00 0.00 0.00 0.00 0.00 0.00 0.00 0.00 0.00 0.00 0.00 0.00 0.00 0.00 0.00 0.00 0.00 0.00 0.00 0.00 0.00 0.00 0.00 0.00 0.00 0.00 0.00 0.00 0.00 0.00 0.00 0.00 0.00 0.00 0.00 0.00 0.00 0.00 0.00 0.00 0.00 0.00 0.00 0.00 0.00 0.00 0.00 0.00 0.00 0.00 0.00 0.00 0.01 0.00 0.00 0.00
0.00 0.00 0.00 0.00 0.00 0.00 0.00 0.00 0.00 0.00 0.00 0.00 0.00 0.00 0.00 0.00 0.00 0.00 0.00 0.00 0.00 0.00 0.00 0.00 0.00 0.00 0.00 0.00 0.00 0.00 0.00 0.00 0.00 0.00 0.00 0.00 0.00 0.00 0.00 0.00 0.00 0.00 0.00 0.00 0.00 0.00 0.00 0.00 0.00 0.00 0.00 0.00 0.00 0.00 0.00 0.00 0.00 0.00 0.00 0.01 0.00 0.00 0.00
0.00 0.00 0.00 0.00 0.00 0.00 0.00 0.00 0.00 0.00 0.00 0.00 0.00 0.00 0.00 0.00 0.00 0.00 0.00 0.00 0.00 0.00 0.00 0.00 0.00 0.00 0.00 0.00 0.00 0.00 0.00 0.00 0.00 0.00 0.00 0.00 0.00 0.00 0.00 0.00 0.00 0.00 0.00 0.00 0.00 0.00 0.00 0.00 0.00 0.00 0.00 0.00 0.00 0.00 0.00 0.00 0.00 0.00 0.00 0.00 0.00 0.00 0.00
0.00 0.00 0.00 0.00 0.00 0.00 0.00 0.00 0.00 0.00 0.00 0.00 0.00 0.00 0.00 0.00 0.00 0.00 0.00 0.00 0.00 0.00 0.00 0.00 0.00 0.00 0.00 0.00 0.00 0.00 0.00 0.00 0.00 0.00 0.00 0.00 0.00 0.00 0.00 0.00 0.00 0.00 0.00 0.00 0.00 0.00 0.00 0.00 0.00 0.00 0.00 0.00 0.00 0.00 0.00 0.00 0.00 0.00 0.00 0.00 0.00 0.00 0.02
0.00 0.00 0.00 0.00 0.00 0.00 0.00 0.00 0.00 0.00 0.00 0.00 0.00 0.00 0.00 0.00 0.00 0.00 0.00 0.00 0.00 0.00 0.00 0.00 0.00 0.00 0.00 0.00 0.00 0.00 0.00 0.00 0.00 0.00 0.00 0.00 0.00 0.00 0.00 0.00 0.00 0.00 0.00 0.00 0.00 0.00 0.00 0.00 0.00 0.00 0.00 0.00 0.00 0.00 0.00 0.00 0.00 0.00 0.00 0.00 0.00 0.00 0.03
0.00 0.00 0.00 0.00 0.00 0.00 0.00 0.00 0.00 0.00 0.00 0.00 0.00 0.00 0.00 0.00 0.00 0.00 0.00 0.00 0.00 0.00 0.00 0.00 0.00 0.00 0.00 0.00 0.00 0.00 0.00 0.00 0.00 0.00 0.00 0.00 0.00 0.00 0.00 0.00 0.00 0.00 0.00 0.00 0.00 0.00 0.00 0.00 0.00 0.00 0.00 0.00 0.00 0.00 0.00 0.00 0.00 0.00 0.00 0.00 0.00 0.01 0.03
0.00 0.00 0.00 0.00 0.00 0.00 0.00 0.00 0.00 0.00 0.00 0.00 0.00 0.00 0.00 0.00 0.00 0.00 0.00 0.00 0.00 0.00 0.00 0.00 0.00 0.00 0.00 0.00 0.00 0.00 0.00 0.00 0.00 0.00 0.00 0.00 0.00 0.00 0.00 0.00 0.00 0.00 0.00 0.00 0.00 0.00 0.00 0.00 0.00 0.00 0.00 0.00 0.00 0.00 0.00 0.00 0.00 0.00 0.00 0.00 0.00 0.00 0.00
0.00 0.00 0.00 0.00 0.00 0.00 0.00 0.00 0.00 0.00 0.00 0.00 0.00 0.00 0.00 0.00 0.00 0.00 0.00 0.00 0.00 0.00 0.00 0.00 0.00 0.00 0.00 0.00 0.00 0.00 0.00 0.00 0.00 0.00 0.00 0.00 0.00 0.00 0.00 0.00 0.00 0.00 0.00 0.00 0.00 0.00 0.00 0.00 0.00 0.00 0.00 0.00 0.00 0.00 0.00 0.00 0.00 0.00 0.00 0.00 0.00 0.00 0.00
0.00 0.00 0.00 0.00 0.00 0.00 0.00 0.00 0.00 0.00 0.00 0.00 0.00 0.00 0.00 0.00 0.00 0.00 0.00 0.00 0.00 0.00 0.00 0.00 0.00 0.00 0.00 0.00 0.00 0.00 0.00 0.00 0.00 0.00 0.00 0.00 0.00 0.00 0.00 0.00 0.00 0.00 0.00 0.00 0.00 0.00 0.00 0.00 0.00 0.00 0.00 0.00 0.00 0.00 0.00 0.00 0.00 0.00 0.00 0.00 0.00 0.00 0.00
0.00 0.00 0.00 0.00 0.00 0.00 0.00 0.00 0.00 0.00 0.00 0.00 0.00 0.00 0.00 0.00 0.00 0.00 0.00 0.00 0.00 0.00 0.00 0.00 0.00 0.00 0.00 0.00 0.00 0.00 0.00 0.00 0.00 0.00 0.00 0.00 0.00 0.00 0.00 0.00 0.00 0.00 0.00 0.00 0.00 0.00 0.00 0.00 0.00 0.00 0.00 0.00 0.00 0.01 0.00 0.00 0.00 0.00 0.00 0.00 0.00 0.00 0.00
0.00 0.00 0.00 0.00 0.00 0.00 0.00 0.00 0.00 0.00 0.00 0.00 0.00 0.00 0.00 0.00 0.00 0.00 0.00 0.00 0.00 0.00 0.00 0.00 0.00 0.00 0.00 0.00 0.00 0.00 0.00 0.00 0.00 0.00 0.00 0.00 0.00 0.00 0.00 0.00 0.00 0.00 0.00 0.00 0.00 0.00 0.00 0.00 0.00 0.00 0.00 0.00 0.00 0.00 0.00 0.00 0.00 0.00 0.00 0.00 0.00 0.00 0.00
0.00 0.00 0.00 0.00 0.00 0.00 0.00 0.00 0.00 0.00 0.00 0.00 0.00 0.00 0.00 0.00 0.00 0.00 0.00 0.01 0.01 0.00 0.00 0.00 0.00 0.00 0.00 0.00 0.00 0.00 0.00 0.00 0.00 0.00 0.00 0.00 0.00 0.00 0.00 0.00 0.00 0.00 0.00 0.00 0.00 0.00 0.00 0.00 0.00 0.00 0.00 0.00 0.00 0.00 0.00 0.00 0.00 0.00 0.00 0.00 0.00 0.00 0.00
0.00 0.00 0.01 0.00 0.00 0.00 0.00 0.00 0.01 0.00 0.05 0.01 0.00 0.00 0.00 0.00 0.00 0.00 0.00 0.00 0.00 0.01 0.01 0.00 0.00 0.00 0.00 0.00 0.00 0.00 0.00 0.00 0.00 0.00 0.00 0.00 0.00 0.00 0.00 0.00 0.00 0.00 0.00 0.00 0.00 0.00 0.00 0.00 0.00 0.00 0.00 0.00 0.00 0.00 0.00 0.00 0.00 0.00 0.00 0.00 0.00 0.00 0.00
0.00 0.00 0.02 0.10 0.05 0.04 0.04 0.06 0.15 0.22 0.27 0.14 0.00 0.00 0.01 0.00 0.00 0.00 0.00 0.00 0.00 0.00 0.00 0.00 0.01 0.01 0.01 0.00 0.00 0.00 0.00 0.00 0.00 0.00 0.00 0.00 0.00 0.00 0.00 0.00 0.00 0.00 0.00 0.00 0.00 0.00 0.00 0.00 0.00 0.00 0.00 0.00 0.00 0.00 0.00 0.00 0.00 0.00 0.00 0.00 0.00 0.00 0.00
0.05 0.20 0.27 0.32 0.31 0.42 0.37 0.31 0.42 0.35 0.47 0.42 0.21 0.01 0.01 0.00 0.03 0.01 0.01 0.02 0.02 0.01 0.01 0.01 0.01 0.00 0.01 0.00 0.00 0.00 0.00 0.00 0.00 0.00 0.00 0.00 0.00 0.00 0.00 0.00 0.00 0.00 0.00 0.00 0.00 0.00 0.00 0.00 0.00 0.00 0.00 0.00 0.00 0.00 0.00 0.00 0.00 0.00 0.00 0.00 0.00 0.00 0.00
0.00 0.03 0.26 0.24 0.27 0.37 0.37 0.41 0.65 0.86 0.88 0.65 0.49 0.24 0.43 0.64 0.60 0.47 0.18 0.07 0.06 0.02 0.02 0.02 0.02 0.02 0.00 0.00 0.00 0.00 0.00 0.00 0.00 0.00 0.00 0.00 0.00 0.00 0.00 0.00 0.00 0.00 0.00 0.00 0.00 0.00 0.00 0.00 0.00 0.00 0.00 0.00 0.00 0.00 0.00 0.00 0.00 0.00 0.00 0.00 0.00 0.00 0.00
0.01 0.00 0.01 0.11 0.23 0.44 0.48 0.58 0.64 0.41 0.25 0.19 0.23 0.42 0.58 0.36 0.51 0.61 0.36 0.26 0.05 0.02 0.02 0.04 0.03 0.06 0.00 0.00 0.00 0.00 0.00 0.00 0.00 0.00 0.00 0.00 0.00 0.00 0.00 0.00 0.00 0.00 0.00 0.00 0.00 0.00 0.00 0.00 0.00 0.00 0.00 0.00 0.00 0.00 0.00 0.00 0.00 0.00 0.00 0.00 0.00 0.00 0.00
0.09 0.05 0.03 0.01 0.12 0.32 0.36 0.25 0.54 0.37 0.72 0.67 0.63 1.02 0.76 0.81 0.80 0.99 0.90 0.81 0.71 0.44 0.32 0.26 0.13 0.03 0.00 0.00 0.00 0.00 0.00 0.00 0.00 0.00 0.00 0.00 0.00 0.00 0.00 0.00 0.00 0.00 0.00 0.00 0.00 0.00 0.00 0.00 0.01 0.00 0.01 0.00 0.01 0.00 0.00 0.00 0.00 0.00 0.00 0.00 0.00 0.00 0.00
0.03 0.18 0.21 0.11 0.07 0.18 0.38 0.19 0.13 0.17 0.33 0.50 0.68 0.78 0.56 0.36 0.41 0.41 0.72 0.75 0.79 0.68 0.49 0.27 0.15 0.07 0.00 0.00 0.00 0.00 0.00 0.00 0.00 0.00 0.00 0.00 0.00 0.00 0.00 0.02 0.02 0.00 0.00 0.02 0.03 0.02 0.03 0.00 0.00 0.00 0.01 0.00 0.00 0.00 0.01 0.00 0.00 0.00 0.00 0.00 0.00 0.00 0.00
0.15 0.22 0.57 0.78 0.61 0.67 0.83 0.74 0.91 0.64 0.64 0.66 0.71 0.52 0.34 0.40 0.44 0.40 0.35 0.17 0.20 0.19 0.21 0.06 0.01 0.00 0.00 0.00 0.00 0.00 0.00 0.00 0.00 0.00 0.00 0.01 0.00 0.00 0.01 0.01 0.01 0.01 0.02 0.01 0.01 0.01 0.03 0.05 0.04 0.00 0.00 0.00 0.00 0.01 0.01 0.00 0.00 0.00 0.00 0.00 0.00 0.00 0.00
MSLP
1000.04 1000.52 1000.88 1001.04 1001.48 1001.84 1002.12 1002.24 1002.36 1002.76 1003.04 1003.56 1003.88 1004.20 1004.64 1005.00 1005.36 1005.88 1006.52 1007.00 1007.48 1008.04 1008.24 1008.52 1008.88 1009.20 1009.60 1009.84 1009.96 1010.08 1010.20 1010.52 1010.80 1011.20 1011.48 1011.76 1011.88 1012.20 1012.48 1012.60 1012.92 1013.16 1013.28 1013.60 1013.76 1013.92 1014.08 1014.12 1014.44 1014.64 1014.84 1015.12 1015.44 1015.64 1015.76 1015.80 1016.04 1016.28 1016.52 1016.72 1016.96 1017.28 1017.44
1000.08 1000.20 1000.52 1000.64 1001.04 1001.28 1001.32 1001.40 1001.68 1002.08 1002.56 1002.92 1003.36 1003.72 1004.00 1004.44 1004.76 1005.32 1005.76 1006.24 1006.76 1007.28 1007.72 1008.08 1008.48 1008.80 1009.08 1009.40 1009.56 1009.76 1010.00 1010.16 1010.36 1010.64 1011.00 1011.36 1011.48 1011.68 1011.76 1012.08 1012.40 1012.76 1012.88 1013.04 1013.28 1013.44 1013.68 1013.88 1014.12 1014.44 1014.72 1014.96 1015.20 1015.36 1015.48 1015.64 1015.80 1016.08 1016.36 1016.56 1016.84 1017.12 1017.28
999.60 999.80 1000.04 1000.28 1000.60 1000.88 1001.08 1001.16 1001.36 1001.52 1001.92 1002.40 1002.88 1003.28 1003.48 1003.72 1003.96 1004.52 1005.20 1005.84 1006.44 1006.84 1007.20 1007.64 1007.96 1008.36 1008.60 1008.92 1009.28 1009.48 1009.60 1009.80 1010.12 1010.40 1010.76 1011.04 1011.24 1011.32 1011.44 1011.64 1011.92 1012.28 1012.44 1012.56 1012.84 1013.16 1013.28 1013.64 1013.84 1014.00 1014.36 1014.72 1014.92 1015.12 1015.24 1015.48 1015.64 1015.84 1016.08 1016.32 1016.56 1016.88 1017.08
999.28 999.44 999.40 999.44 999.60 999.88 1000.24 1000.56 1000.96 1001.20 1001.32 1001.60 1002.04 1002.36 1002.88 1003.28 1003.56 1004.00 1004.48 1005.04 1005.84 1006.44 1006.96 1007.16 1007.48 1007.88 1008.16 1008.56 1008.92 1009.16 1009.36 1009.48 1009.60 1009.92 1010.20 1010.44 1010.80 1010.84 1011.20 1011.44 1011.68 1011.88 1012.28 1012.44 1012.52 1012.72 1012.96 1013.28 1013.60 1013.84 1014.04 1014.44 1014.68 1014.88 1015.04 1015.20 1015.36 1015.60 1015.84 1016.08 1016.36 1016.52 1016.68
998.64 998.64 999.00 999.36 999.52 999.80 1000.00 1000.24 1000.48 1000.64 1000.84 1000.88 1001.24 1001.68 1002.12 1002.68 1003.28 1003.80 1004.20 1004.56 1005.00 1005.68 1005.92 1006.40 1006.80 1007.24 1007.64 1007.96 1008.36 1008.60 1008.88 1009.08 1009.32 1009.44 1009.72 1009.96 1010.20 1010.48 1010.84 1011.16 1011.40 1011.60 1011.80 1012.04 1012.24 1012.48 1012.72 1013.08 1013.36 1013.60 1013.84 1014.04 1014.40 1014.60 1014.76 1014.88 1015.12 1015.32 1015.60 1015.80 1016.16 1016.32 1016.52
998.64 998.72 998.84 998.96 999.00 999.08 999.24 999.36 999.64 999.92 1000.24 1000.64 1001.00 1001.48 1001.88 1002.44 1002.92 1003.48 1003.80 1004.32 1004.72 1005.04 1005.56 1006.12 1006.64 1006.96 1007.48 1007.60 1007.96 1008.28 1008.52 1008.72 1008.80 1008.96 1009.28 1009.56 1009.92 1010.24 1010.48 1010.72 1011.00 1011.24 1011.56 1011.72 1011.88 1012.12 1012.32 1012.64 1012.96 1013.24 1013.56 1013.68 1013.92 1014.20 1014.36 1014.60 1014.80 1015.04 1015.36 1015.60 1015.80 1016.04 1016.32
997.64 997.88 998.12 998.24 998.28 998.44 998.72 998.92 999.08 999.32 999.40 999.60 1000.12 1000.80 1001.52 1002.08 1002.48 1002.92 1003.44 1004.00 1004.28 1004.92 1005.36 1005.80 1006.08 1006.52 1006.92 1007.20 1007.52 1007.88 1008.24 1008.44 1008.60 1008.76 1008.88 1009.24 1009.44 1009.80 1010.04 1010.32 1010.56 1010.80 1010.96 1011.32 1011.68 1011.72 1012.04 1012.24 1012.48 1012.76 1013.00 1013.28 1013.52 1013.80 1014.08 1014.32 1014.60 1014.76 1015.08 1015.40 1015.64 1015.76 1015.96
996.48 997.20 997.08 997.24 997.44 997.56 998.08 998.44 998.72 999.04 999.24 999.44 1000.00 1000.60 1001.12 1001.32 1001.92 1002.52 1002.92 1003.32 1003.84 1004.40 1004.84 1005.24 1005.64 1005.96 1006.40 1006.76 1007.04 1007.40 1007.72 1008.00 1008.12 1008.32 1008.48 1008.88 1009.16 1009.48 1009.68 1009.92 1010.20 1010.36 1010.72 1011.08 1011.16 1011.28 1011.60 1011.80 1011.96 1012.24 1012.56 1012.88 1013.16 1013.40 1013.64 1013.88 1014.16 1014.40 1014.72 1015.16 1015.44 1015.64 1015.68
995.40 995.52 996.12 996.36 996.44 996.80 997.32 997.72 998.16 998.60 999.08 999.36 999.48 999.76 1000.08 1000.72 1001.28 1001.72 1002.24 1002.84 1003.32 1003.84 1004.32 1004.48 1004.96 1005.44 1005.88 1006.36 1006.72 1006.96 1007.20 1007.52 1007.84 1007.96 1008.24 1008.60 1008.84 1009.12 1009.28 1009.52 1009.76 1009.92 1010.36 1010.60 1010.80 1010.88 1011.04 1011.32 1011.52 1011.80 1012.12 1012.44 1012.72 1013.00 1013.32 1013.52 1013.80 1014.04 1014.36 1014.72 1015.04 1015.28 1015.40
995.96 995.96 995.72 995.84 996.28 996.72 997.04 997.48 998.00 998.64 999.28 999.60 999.76 999.80 999.84 1000.00 1000.40 1001.00 1001.56 1001.96 1002.56 1003.24 1003.68 1004.16 1004.56 1005.04 1005.56 1006.00 1006.32 1006.56 1006.92 1007.24 1007.32 1007.64 1007.92 1008.28 1008.36 1008.64 1008.80 1009.04 1009.36 1009.52 1009.88 1010.08 1010.28 1010.64 1010.68 1010.84 1011.12 1011.48 1011.80 1012.12 1012.40 1012.64 1012.92 1013.24 1013.44 1013.72 1013.92 1014.20 1014.52 1014.80 1014.96
995.28 995.64 996.00 996.28 996.56 996.68 997.00 997.60 998.12 998.44 998.60 998.88 999.08 999.36 999.48 999.72 1000.08 1000.44 1000.84 1001.28 1001.84 1002.44 1002.92 1003.52 1003.96 1004.60 1005.12 1005.56 1006.04 1006.36 1006.64 1006.84 1006.96 1007.28 1007.48 1007.68 1007.84 1008.12 1008.28 1008.60 1008.88 1009.08 1009.36 1009.64 1009.96 1010.08 1010.40 1010.64 1010.76 1011.16 1011.44 1011.72 1011.96 1012.28 1012.56 1012.76 1013.00 1013.32 1013.60 1013.84 1014.04 1014.32 1014.64
995.04 995.44 995.84 995.92 996.12 996.56 997.20 997.36 997.56 997.92 998.28 998.56 998.76 999.04 999.32 999.56 999.84 1000.16 1000.52 1000.76 1001.04 1001.88 1002.48 1002.96 1003.40 1004.00 1004.64 1005.12 1005.72 1006.04 1006.24 1006.36 1006.56 1006.76 1006.92 1007.12 1007.36 1007.60 1007.80 1008.00 1008.32 1008.60 1008.80 1009.00 1009.48 1009.72 1009.96 1010.28 1010.52 1010.72 1011.04 1011.24 1011.48 1011.72 1012.04 1012.36 1012.68 1012.92 1013.24 1013.56 1013.84 1014.16 1014.52
995.20 995.60 995.96 996.00 996.08 996.44 996.64 997.20 997.52 997.64 997.88 998.08 998.28 998.52 998.92 999.24 999.64 999.92 1000.28 1000.60 1000.72 1001.08 1001.76 1002.40 1002.96 1003.56 1004.16 1004.68 1005.16 1005.60 1005.80 1005.88 1006.00 1006.04 1006.28 1006.60 1006.84 1007.00 1007.28 1007.52 1007.72 1008.00 1008.36 1008.48 1008.88 1009.32 1009.68 1009.84 1010.12 1010.28 1010.60 1010.96 1011.24 1011.60 1011.92 1012.28 1012.56 1012.84 1013.12 1013.44 1013.76 1014.08 1014.44
994.76 995.00 995.20 995.28 995.64 996.20 996.84 997.04 997.20 997.56 997.80 997.96 998.16 998.24 998.60 998.76 998.92 999.32 999.80 1000.24 1000.40 1000.72 1001.32 1001.80 1002.44 1003.08 1003.64 1004.16 1004.68 1005.00 1005.16 1005.24 1005.24 1005.44 1005.68 1005.96 1006.28 1006.60 1006.76 1007.00 1007.24 1007.44 1007.72 1008.08 1008.52 1008.80 1009.08 1009.40 1009.68 1009.92 1010.24 1010.64 1011.00 1011.28 1011.64 1012.04 1012.40 1012.68 1012.92 1013.28 1013.60 1013.92 1014.16
995.32 995.40 995.40 995.64 996.08 996.44 996.76 997.08 997.20 997.36 997.44 997.48 997.72 998.16 998.40 998.64 998.92 999.12 999.44 999.64 999.92 1000.20 1000.60 1001.04 1001.92 1002.64 1003.20 1003.68 1004.12 1004.28 1004.44 1004.64 1004.80 1004.96 1005.32 1005.64 1005.96 1006.28 1006.44 1006.60 1006.76 1007.00 1007.28 1007.60 1007.92 1008.12 1008.40 1008.76 1009.24 1009.76 1010.20 1010.44 1010.76 1011.08 1011.36 1011.76 1012.08 1012.32 1012.68 1013.16 1013.52 1013.68 1013.88
995.44 995.36 995.36 995.60 995.80 995.92 996.04 996.24 996.72 997.04 997.20 997.36 997.48 997.68 998.04 998.36 998.56 998.72 999.04 999.32 999.48 999.76 1000.04 1000.64 1001.40 1002.08 1002.64 1003.12 1003.36 1003.60 1003.88 1004.16 1004.40 1004.68 1004.96 1005.32 1005.64 1005.80 1005.96 1006.16 1006.40 1006.68 1007.00 1007.28 1007.44 1007.72 1008.04 1008.44 1008.88 1009.32 1009.76 1010.24 1010.56 1010.84 1011.16 1011.48 1011.68 1011.96 1012.36 1012.60 1012.92 1013.12 1013.32
995.04 995.32 995.48 995.48 995.56 995.80 995.96 996.16 996.28 996.48 996.80 997.00 997.08 997.16 997.40 997.68 997.84 998.08 998.44 998.76 999.04 999.36 999.52 999.96 1000.84 1001.40 1001.92 1002.44 1002.64 1002.96 1003.32 1003.76 1004.08 1004.32 1004.68 1004.80 1005.04 1005.32 1005.60 1005.88 1006.08 1006.44 1006.72 1006.96 1007.16 1007.48 1007.76 1008.12 1008.60 1008.92 1009.28 1009.72 1010.20 1010.64 1010.88 1011.08 1011.28 1011.56 1011.88 1012.16 1012.36 1012.60 1013.00
994.84 994.96 995.08 995.12 995.20 995.28 995.72 995.92 996.08 996.44 996.52 996.44 996.36 996.48 996.80 997.20 997.44 997.76 998.08 998.16 998.40 998.60 998.88 999.56 1000.16 1000.76 1001.24 1001.60 1002.08 1002.48 1002.84 1003.16 1003.52 1003.96 1004.20 1004.40 1004.72 1004.92 1005.20 1005.52 1005.92 1006.24 1006.44 1006.72 1007.00 1007.16 1007.40 1007.88 1008.16 1008.48 1008.88 1009.36 1009.80 1010.20 1010.44 1010.60 1010.76 1011.12 1011.44 1011.84 1012.08 1012.36 1012.72
994.40 994.40 994.64 994.72 994.80 994.92 994.88 994.96 995.04 995.08 995.28 995.48 995.68 995.92 995.92 996.08 996.84 997.28 997.20 997.52 997.52 997.92 998.64 999.12 999.56 1000.12 1000.72 1001.08 1001.48 1001.88 1002.20 1002.56 1003.04 1003.44 1003.80 1004.04 1004.28 1004.56 1004.96 1005.36 1005.68 1005.96 1006.20 1006.44 1006.48 1006.84 1007.32 1007.60 1007.96 1008.36 1008.60 1009.04 1009.52 1009.88 1010.00 1010.20 1010.44 1010.80 1011.16 1011.40 1011.68 1012.00 1012.32
993.84 993.80 993.40 993.28 993.56 994.04 994.36 994.36 994.48 994.56 994.44 994.48 994.52 994.52 994.64 995.12 995.72 995.96 996.00 996.44 997.04 997.68 998.08 998.64 999.16 999.56 1000.04 1000.48 1000.88 1001.20 1001.60 1002.04 1002.52 1003.00 1003.32 1003.60 1003.96 1004.32 1004.72 1005.08 1005.36 1005.48 1005.64 1005.96 1006.32 1006.72 1007.08 1007.40 1007.80 1008.08 1008.40 1008.68 1009.04 1009.36 1009.52 1009.76 1010.12 1010.52 1010.84 1011.12 1011.44 1011.72 1012.12
992.80 992.96 993.60 994.08 993.96 993.68 993.60 993.68 993.84 994.00 994.24 994.16 994.00 993.96 994.32 994.92 994.96 995.28 995.88 996.32 996.92 997.08 997.52 997.92 998.48 999.00 999.40 999.84 1000.16 1000.60 1001.08 1001.60 1002.08 1002.60 1003.00 1003.32 1003.68 1004.08 1004.44 1004.72 1005.00 1005.32 1005.48 1005.76 1006.16 1006.56 1006.96 1007.28 1007.64 1007.84 1008.08 1008.40 1008.64 1009.00 1009.32 1009.44 1009.76 1010.16 1010.40 1010.72 1011.20 1011.56 1011.92
992.20 992.60 993.16 993.20 993.44 993.24 993.16 993.20 993.28 993.48 993.64 993.36 993.68 993.96 994.04 994.40 994.48 995.16 995.64 995.68 996.28 996.68 997.00 997.44 997.96 998.36 998.76 999.28 999.64 1000.04 1000.40 1001.00 1001.64 1002.20 1002.68 1003.08 1003.44 1003.88 1004.20 1004.44 1004.76 1005.16 1005.32 1005.64 1006.00 1006.24 1006.52 1006.88 1007.12 1007.60 1007.92 1008.12 1008.48 1008.88 1009.24 1009.24 1009.52 1009.76 1010.20 1010.72 1011.08 1011.44 1011.88
991.76 991.68 991.80 992.16 992.16 992.52 992.36 992.08 992.32 992.32 992.48 992.84 993.20 993.64 993.92 993.76 994.12 994.68 995.20 995.72 996.00 996.28 996.72 997.16 997.68 997.92 998.12 998.56 998.92 999.40 999.88 1000.44 1001.16 1001.80 1002.28 1002.68 1003.20 1003.64 1003.96 1004.32 1004.68 1004.96 1005.04 1005.64 1005.92 1006.32 1006.60 1006.92 1007.20 1007.40 1007.72 1008.08 1008.28 1008.68 1009.00 1009.24 1009.56 1009.96 1010.32 1010.64 1011.00 1011.60 1011.88
990.56 990.92 990.92 991.28 991.48 991.76 992.00 992.16 992.16 992.16 992.48 992.80 992.96 992.92 993.08 993.32 993.76 994.40 995.04 995.36 995.56 996.08 996.52 996.84 997.16 997.20 997.52 997.96 998.28 998.80 999.36 999.92 1000.56 1001.32 1001.88 1002.40 1002.92 1003.36 1003.76 1004.00 1004.32 1004.72 1004.80 1005.36 1005.88 1006.28 1006.48 1006.72 1007.12 1007.36 1007.56 1007.92 1008.28 1008.48 1008.96 1009.32 1009.56 1009.84 1010.20 1010.68 1011.08 1011.36 1011.72
990.60 990.24 990.24 990.40 991.04 991.52 991.60 991.40 991.52 991.84 992.16 992.56 992.92 992.60 992.56 992.92 993.40 994.00 994.64 994.84 995.12 995.44 996.04 996.36 996.52 996.72 997.04 997.32 997.64 998.20 998.84 999.44 1000.12 1000.80 1001.48 1002.16 1002.64 1003.00 1003.56 1003.88 1004.20 1004.44 1004.60 1005.00 1005.44 1006.00 1006.28 1006.64 1007.12 1007.48 1007.68 1007.84 1008.12 1008.36 1008.76 1009.12 1009.56 1009.96 1010.16 1010.56 1010.92 1011.28 1011.48
991.72 991.32 991.00 990.32 990.16 990.32 990.48 990.48 990.80 991.24 991.80 992.16 992.20 991.92 992.32 992.64 993.16 993.60 993.88 994.12 994.32 994.92 995.32 995.52 995.68 995.80 996.12 996.68 997.28 997.84 998.48 999.08 999.80 1000.48 1001.12 1001.80 1002.32 1002.72 1003.16 1003.52 1003.96 1004.32 1004.64 1005.00 1005.40 1006.04 1006.36 1006.68 1007.12 1007.56 1007.80 1007.84 1008.08 1008.40 1008.60 1008.96 1009.36 1009.84 1010.04 1010.32 1010.72 1010.92 1011.08
991.48 991.12 991.32 990.96 990.44 989.72 990.24 990.60 990.52 990.84 990.96 991.12 991.16 991.44 991.76 992.08 992.76 993.32 993.32 993.48 994.04 994.32 994.08 994.24 994.88 995.56 996.04 996.48 997.04 997.68 998.28 998.84 999.44 1000.16 1000.76 1001.24 1001.88 1002.36 1002.88 1003.24 1003.80 1004.20 1004.68 1005.24 1005.68 1006.04 1006.52 1006.88 1007.20 1007.48 1007.72 1007.80 1007.96 1008.24 1008.52 1008.68 1009.20 1009.76 1009.96 1010.24 1010.52 1010.76 1010.88
991.72 990.92 990.92 990.60 990.28 990.32 990.16 989.96 990.44 990.20 990.12 990.16 990.44 990.80 991.28 991.76 992.36 992.60 993.00 993.36 993.68 993.44 993.24 993.88 994.64 995.32 995.92 996.44 996.96 997.52 998.16 998.76 999.32 999.80 1000.48 1001.08 1001.64 1002.40 1003.04 1003.28 1003.60 1004.12 1004.68 1005.20 1005.64 1006.04 1006.48 1006.68 1006.92 1007.16 1007.36 1007.44 1007.72 1008.16 1008.44 1008.60 1008.92 1009.52 1010.04 1010.20 1010.52 1010.76 1010.76
994.40 993.64 991.88 990.56 990.12 989.52 989.88 990.92 990.72 990.28 990.00 989.68 989.84 990.20 990.52 991.00 991.80 992.32 992.64 993.00 992.88 992.92 993.32 993.80 994.40 995.16 995.80 996.36 996.96 997.56 998.20 998.76 999.32 999.96 1000.48 1001.16 1001.60 1002.28 1003.04 1003.36 1003.72 1004.24 1004.68 1005.20 1005.64 1006.00 1006.40 1006.64 1006.80 1007.00 1007.12 1007.08 1007.40 1007.88 1008.24 1008.52 1008.84 1009.16 1009.76 1010.24 1010.48 1010.68 1010.80
994.48 993.96 993.44 992.60 991.96 991.84 991.12 991.04 991.28 991.16 989.88 989.48 989.76 990.08 990.44 990.84 991.92 992.40 992.72 992.84 992.60 992.92 993.44 994.00 994.52 995.20 995.96 996.56 997.04 997.68 998.36 998.92 999.48 1000.04 1000.60 1001.16 1001.68 1002.28 1002.96 1003.52 1003.88 1004.40 1004.88 1005.28 1005.80 1006.32 1006.72 1007.04 1007.24 1007.48 1007.32 1007.20 1007.56 1007.96 1008.24 1008.44 1008.76 1009.08 1009.32 1009.88 1010.24 1010.52 1010.76
995.64 995.16 994.60 994.44 993.72 992.56 991.84 992.44 993.36 993.84 993.36 991.20 990.12 990.40 990.80 991.28 992.08 992.68 993.00 992.72 992.44 993.08 993.60 994.20 994.76 995.48 996.28 996.80 997.32 997.88 998.48 999.12 999.76 1000.40 1000.88 1001.32 1001.72 1002.56 1003.20 1003.76 1004.12 1004.88 1005.24 1005.52 1006.08 1006.44 1006.88 1007.20 1007.52 1007.84 1007.60 1007.32 1007.72 1008.16 1008.40 1008.52 1008.72 1009.00 1009.28 1009.56 1010.00 1010.40 1010.68
995.52 995.20 994.96 994.64 994.32 993.52 992.84 992.68 992.92 994.36 995.88 994.44 991.76 990.92 991.12 991.36 991.80 992.60 992.60 992.20 992.44 992.88 993.56 994.28 995.08 995.84 996.48 997.00 997.52 998.08 998.64 999.56 1000.32 1000.80 1001.28 1001.72 1002.16 1002.72 1003.24 1003.84 1004.44 1005.04 1005.44 1005.68 1006.08 1006.40 1006.80 1007.24 1007.60 1007.84 1007.60 1007.56 1007.80 1008.24 1008.56 1008.76 1008.96 1009.20 1009.44 1009.72 1010.00 1010.36 1010.52
996.28 996.04 995.60 995.24 994.80 994.64 993.56 992.32 992.92 994.44 996.80 996.08 994.12 992.16 991.68 992.12 992.36 992.40 992.24 992.28 992.32 992.80 993.56 994.44 995.20 996.08 996.68 997.28 997.80 998.36 999.00 999.84 1000.60 1001.24 1001.64 1002.08 1002.52 1002.96 1003.44 1003.92 1004.52 1005.00 1005.48 1005.80 1006.08 1006.48 1006.80 1007.16 1007.56 1007.68 1007.56 1007.68 1007.96 1008.32 1008.68 1009.04 1009.24 1009.44 1009.60 1009.76 1010.00 1010.28 1010.64
996.64 996.28 995.88 995.56 995.12 995.00 994.48 993.56 993.48 994.08 995.60 996.36 996.24 995.04 994.28 994.60 994.96 994.76 993.88 992.96 992.68 993.04 993.76 994.84 995.44 996.20 996.92 997.40 998.16 998.84 999.40 1000.20 1000.72 1001.28 1001.92 1002.36 1002.72 1003.24 1003.76 1004.12 1004.40 1004.96 1005.44 1005.72 1006.00 1006.44 1006.80 1007.08 1007.32 1007.36 1007.36 1007.64 1007.80 1008.16 1008.60 1009.08 1009.28 1009.40 1009.52 1009.76 1009.96 1010.32 1010.64
997.00 996.72 996.24 995.96 995.88 995.64 995.80 994.76 994.68 994.84 994.52 995.16 996.12 996.28 995.04 994.48 994.96 995.52 995.36 994.72 993.72 993.48 994.28 995.12 995.80 996.52 997.08 997.72 998.68 999.52 999.84 1000.40 1001.08 1001.80 1002.52 1003.28 1003.72 1004.16 1004.32 1004.20 1004.32 1004.84 1005.28 1005.56 1005.64 1005.72 1006.16 1006.60 1006.76 1006.80 1006.96 1007.32 1007.72 1008.04 1008.48 1008.80 1009.08 1008.88 1008.80 1009.12 1009.36 1009.72 1010.20
997.16 996.80 996.48 996.32 996.20 996.40 996.48 996.36 995.84 995.88 995.32 994.96 995.32 996.00 995.56 994.56 994.08 994.92 995.60 995.68 995.68 995.20 995.60 996.20 996.36 996.80 997.56 998.36 999.24 999.84 1000.20 1000.92 1001.60 1002.12 1002.64 1003.16 1003.80 1004.32 1005.24 1005.88 1005.40 1004.88 1004.92 1005.48 1005.80 1005.76 1005.44 1005.36 1005.80 1006.00 1006.36 1007.08 1007.52 1007.56 1007.88 1008.32 1008.20 1008.28 1008.72 1009.08 1009.40 1009.60 1009.64
997.56 997.16 996.84 996.60 996.64 996.76 996.92 997.08 996.80 996.60 996.48 996.00 995.56 995.84 995.84 995.32 994.68 995.24 996.12 996.60 996.88 996.52 996.88 997.20 997.96 998.08 998.40 999.08 999.68 1000.00 1000.40 1001.08 1001.76 1002.36 1002.92 1003.36 1003.80 1004.32 1005.00 1005.60 1006.24 1006.76 1006.80 1006.52 1006.44 1006.04 1005.60 1005.36 1005.20 1005.16 1005.28 1005.88 1007.08 1007.84 1007.92 1007.88 1007.96 1008.24 1008.56 1008.92 1009.24 1009.48 1009.72
997.80 997.84 997.48 996.80 996.72 997.04 997.20 997.24 997.52 997.48 997.44 997.20 996.72 996.52 996.20 995.64 995.36 995.84 996.40 997.04 997.76 997.92 998.24 998.00 998.16 998.64 999.12 999.60 999.96 1000.20 1000.56 1001.08 1001.72 1002.36 1002.92 1003.40 1003.76 1004.24 1004.80 1005.36 1006.04 1006.56 1006.80 1007.12 1006.84 1006.52 1006.40 1006.32 1006.32 1006.08 1005.76 1005.80 1006.32 1007.16 1008.00 1008.28 1008.16 1008.20 1008.56 1008.84 1009.12 1009.36 1009.64
Thickness
5888 5887 5885 5884 5883 5882 5882 5881 5879 5878 5875 5872 5870 5868 5866 5863 5860 5856 5852 5849 5845 5842 5840 5838 5835 5833 5831 5830 5830 5830 5829 5828 5826 5824 5823 5821 5819 5818 5817 5816 5814 5812 5811 5809 5806 5805 5803 5801 5799 5796 5794 5791 5788 5786 5783 5781 5778 5775 5771 5768 5765 5761 5758
5888 5886 5886 5885 5884 5884 5884 5884 5882 5880 5878 5875 5873 5870 5868 5867 5863 5860 5855 5851 5848 5845 5842 5839 5836 5834 5833 5831 5830 5830 5830 5829 5828 5826 5824 5822 5821 5821 5819 5818 5816 5814 5812 5811 5809 5807 5805 5802 5799 5796 5794 5791 5788 5786 5783 5781 5778 5775 5771 5767 5764 5760 5758
5888 5886 5887 5887 5887 5886 5885 5884 5883 5882 5880 5877 5875 5873 5871 5870 5867 5864 5860 5854 5850 5846 5843 5840 5838 5835 5834 5833 5831 5830 5830 5830 5829 5827 5824 5823 5822 5822 5822 5820 5818 5816 5814 5812 5810 5808 5807 5803 5800 5797 5794 5791 5788 5786 5784 5780 5778 5774 5771 5768 5764 5761 5758
5889 5891 5891 5890 5890 5887 5885 5885 5884 5884 5883 5882 5880 5878 5875 5873 5869 5866 5862 5858 5852 5847 5844 5842 5839 5837 5835 5834 5832 5830 5830 5829 5829 5828 5826 5825 5824 5823 5822 5819 5818 5817 5814 5813 5811 5809 5808 5804 5801 5799 5795 5792 5789 5786 5784 5780 5777 5774 5771 5768 5765 5761 5758
5890 5893 5892 5890 5891 5889 5888 5889 5887 5886 5886 5886 5885 5881 5878 5875 5870 5867 5863 5860 5856 5851 5849 5845 5842 5839 5836 5835 5834 5832 5831 5830 5829 5829 5828 5826 5825 5824 5822 5820 5818 5817 5815 5814 5812 5809 5807 5805 5802 5799 5797 5794 5790 5787 5785 5781 5778 5774 5771 5768 5765 5761 5758
5893 5893 5893 5893 5893 5892 5893 5893 5893 5893 5892 5891 5889 5883 5880 5875 5871 5868 5864 5861 5857 5853 5850 5846 5843 5840 5837 5836 5835 5833 5832 5830 5830 5830 5829 5828 5826 5825 5823 5821 5819 5818 5816 5815 5812 5810 5808 5805 5803 5800 5797 5795 5792 5789 5785 5782 5779 5775 5771 5768 5764 5762 5758
5898 5897 5898 5899 5898 5897 5896 5895 5896 5896 5895 5894 5892 5885 5881 5877 5873 5870 5865 5862 5858 5854 5850 5846 5844 5842 5839 5838 5836 5834 5832 5831 5831 5830 5829 5829 5827 5825 5824 5822 5821 5820 5818 5816 5813 5811 5809 5807 5805 5802 5799 5796 5794 5790 5786 5783 5779 5776 5772 5768 5763 5761 5758
5904 5903 5903 5903 5904 5902 5899 5897 5896 5896 5895 5894 5891 5887 5884 5881 5877 5872 5868 5864 5860 5856 5852 5848 5846 5844 5841 5839 5837 5835 5834 5832 5831 5831 5830 5829 5827 5826 5825 5823 5822 5821 5819 5816 5814 5813 5811 5809 5807 5804 5801 5798 5795 5792 5788 5784 5780 5776 5772 5767 5763 5760 5757
5906 5907 5908 5908 5908 5906 5902 5899 5898 5895 5893 5891 5890 5891 5888 5884 5881 5876 5872 5868 5862 5858 5855 5852 5849 5846 5843 5840 5838 5837 5836 5834 5833 5833 5831 5830 5828 5827 5826 5825 5824 5823 5820 5817 5815 5814 5813 5811 5809 5806 5803 5800 5796 5793 5789 5785 5781 5776 5772 5768 5763 5760 5757
5903 5903 5905 5906 5904 5904 5901 5898 5896 5893 5890 5888 5889 5890 5890 5888 5885 5881 5876 5872 5867 5862 5857 5854 5851 5847 5844 5841 5840 5838 5836 5835 5835 5834 5832 5831 5830 5829 5828 5826 5825 5824 5822 5820 5818 5816 5814 5813 5811 5807 5804 5801 5797 5794 5790 5786 5781 5777 5773 5769 5764 5760 5757
5901 5899 5900 5899 5901 5901 5898 5895 5892 5891 5890 5891 5889 5888 5889 5888 5886 5884 5881 5877 5873 5867 5861 5857 5853 5849 5845 5842 5840 5838 5837 5836 5836 5835 5834 5833 5832 5831 5830 5828 5827 5825 5824 5821 5819 5818 5816 5813 5812 5809 5805 5802 5799 5794 5791 5787 5783 5778 5773 5769 5765 5761 5757
5899 5897 5894 5896 5899 5898 5895 5893 5891 5891 5891 5890 5890 5889 5888 5887 5886 5884 5881 5879 5877 5871 5864 5860 5856 5851 5847 5843 5840 5839 5838 5838 5838 5838 5836 5835 5834 5833 5832 5831 5829 5827 5826 5824 5821 5819 5817 5815 5812 5810 5807 5803 5800 5796 5791 5787 5783 5779 5774 5769 5764 5759 5755
5898 5897 5893 5895 5898 5894 5892 5891 5889 5890 5889 5890 5891 5890 5889 5888 5886 5883 5881 5879 5878 5874 5868 5863 5858 5853 5849 5845 5842 5840 5839 5840 5840 5840 5839 5838 5836 5835 5834 5833 5831 5829 5828 5826 5823 5820 5818 5816 5814 5812 5808 5803 5799 5795 5790 5786 5781 5776 5772 5767 5762 5757 5753
5896 5895 5893 5895 5895 5891 5890 5889 5888 5889 5888 5889 5889 5888 5888 5888 5887 5885 5882 5880 5879 5875 5871 5866 5861 5856 5851 5847 5844 5842 5842 5843 5843 5843 5842 5839 5838 5836 5835 5834 5833 5832 5830 5827 5824 5822 5820 5818 5814 5811 5807 5802 5798 5794 5789 5784 5779 5775 5770 5764 5760 5755 5752
5891 5892 5892 5891 5890 5889 5888 5887 5888 5887 5886 5889 5889 5887 5887 5886 5885 5885 5882 5880 5880 5877 5874 5870 5863 5858 5853 5849 5846 5845 5845 5845 5844 5844 5842 5840 5838 5836 5836 5836 5835 5833 5831 5828 5826 5824 5822 5819 5815 5810 5805 5801 5797 5792 5788 5783 5779 5775 5770 5763 5759 5755 5752
5887 5887 5889 5890 5889 5890 5890 5890 5890 5888 5887 5888 5887 5887 5887 5886 5886 5885 5882 5882 5881 5878 5877 5872 5865 5860 5856 5852 5850 5849 5847 5846 5845 5844 5842 5840 5839 5838 5837 5836 5835 5834 5832 5830 5827 5825 5822 5818 5814 5809 5804 5800 5795 5790 5787 5783 5779 5775 5769 5764 5760 5756 5753
5886 5885 5887 5890 5890 5890 5889 5889 5888 5887 5887 5887 5888 5889 5889 5888 5888 5887 5884 5883 5881 5880 5879 5873 5867 5863 5859 5856 5854 5851 5849 5846 5845 5844 5843 5842 5841 5839 5838 5836 5835 5833 5831 5829 5827 5824 5822 5817 5813 5809 5805 5799 5795 5790 5787 5784 5780 5775 5769 5764 5760 5756 5752
5885 5884 5885 5886 5888 5889 5889 5888 5887 5886 5888 5889 5890 5890 5890 5890 5889 5886 5885 5885 5884 5883 5879 5874 5870 5865 5862 5860 5856 5852 5850 5849 5847 5845 5843 5843 5841 5839 5838 5835 5834 5832 5829 5828 5826 5823 5820 5816 5812 5809 5805 5800 5795 5790 5788 5784 5781 5776 5769 5764 5760 5755 5751
5882 5885 5888 5888 5888 5889 5889 5890 5891 5891 5892 5893 5893 5892 5893 5893 5889 5887 5889 5888 5886 5884 5879 5874 5872 5867 5864 5862 5858 5855 5853 5850 5848 5846 5844 5843 5842 5839 5837 5834 5832 5831 5829 5827 5825 5822 5818 5814 5811 5807 5803 5799 5794 5790 5788 5785 5780 5774 5769 5764 5760 5754 5750
5885 5886 5888 5888 5890 5890 5889 5890 5892 5892 5894 5895 5896 5898 5897 5894 5893 5893 5893 5890 5886 5883 5879 5876 5873 5869 5866 5863 5861 5858 5855 5851 5849 5846 5844 5844 5841 5838 5836 5833 5831 5830 5828 5826 5823 5819 5815 5812 5808 5805 5802 5799 5795 5790 5787 5784 5778 5773 5768 5763 5758 5753 5748
5890 5889 5884 5883 5887 5888 5890 5892 5891 5891 5893 5894 5897 5899 5895 5893 5894 5893 5891 5888 5884 5882 5881 5878 5874 5871 5868 5865 5862 5860 5856 5852 5849 5846 5844 5842 5840 5837 5834 5832 5830 5828 5827 5825 5821 5817 5814 5810 5806 5803 5800 5797 5793 5788 5785 5782 5777 5772 5767 5762 5756 5750 5745
5890 5891 5888 5885 5885 5887 5891 5893 5894 5893 5894 5895 5896 5895 5893 5893 5893 5890 5887 5887 5884 5882 5881 5878 5874 5872 5869 5866 5863 5861 5858 5854 5849 5845 5843 5840 5838 5835 5833 5830 5828 5826 5824 5821 5818 5815 5812 5808 5805 5801 5797 5794 5791 5785 5782 5779 5775 5770 5765 5759 5753 5747 5741
5890 5891 5892 5891 5889 5889 5891 5892 5894 5896 5897 5896 5893 5891 5892 5894 5892 5888 5885 5885 5883 5881 5879 5876 5873 5872 5871 5868 5865 5862 5859 5855 5849 5845 5842 5839 5836 5833 5830 5829 5826 5823 5822 5818 5813 5811 5808 5804 5801 5798 5794 5791 5787 5782 5779 5775 5771 5767 5761 5755 5749 5743 5738
5893 5894 5895 5893 5890 5888 5888 5887 5888 5891 5892 5892 5890 5891 5894 5893 5890 5887 5883 5882 5882 5879 5876 5874 5873 5873 5872 5870 5867 5863 5860 5856 5851 5846 5842 5838 5834 5830 5828 5826 5823 5821 5820 5816 5811 5808 5805 5801 5798 5794 5791 5787 5783 5780 5775 5770 5767 5763 5757 5751 5745 5740 5735
5885 5891 5895 5896 5891 5887 5886 5886 5887 5887 5887 5886 5887 5890 5892 5891 5888 5885 5881 5881 5881 5877 5875 5873 5873 5875 5873 5871 5868 5864 5860 5856 5851 5846 5841 5836 5833 5829 5826 5824 5822 5819 5818 5815 5810 5805 5802 5799 5794 5789 5786 5784 5780 5776 5771 5767 5763 5758 5753 5748 5742 5738 5733
5870 5876 5882 5887 5890 5890 5888 5886 5884 5881 5881 5884 5888 5890 5889 5887 5885 5881 5881 5882 5879 5876 5876 5876 5876 5876 5874 5871 5868 5862 5858 5855 5850 5845 5841 5835 5831 5828 5825 5822 5819 5817 5814 5811 5807 5802 5798 5794 5790 5785 5782 5779 5776 5772 5768 5764 5760 5754 5749 5745 5740 5736 5732
5865 5868 5869 5873 5880 5885 5885 5883 5882 5880 5880 5885 5891 5890 5886 5885 5882 5879 5879 5879 5874 5875 5880 5880 5877 5874 5870 5867 5865 5860 5855 5853 5849 5844 5840 5835 5830 5826 5822 5820 5816 5812 5810 5805 5801 5798 5793 5789 5785 5781 5778 5776 5771 5767 5765 5762 5757 5751 5746 5742 5737 5733 5730
5850 5857 5863 5869 5875 5878 5877 5877 5878 5878 5880 5883 5886 5885 5883 5881 5878 5877 5877 5873 5872 5876 5880 5877 5872 5869 5865 5863 5860 5855 5852 5849 5845 5842 5837 5832 5829 5823 5817 5815 5812 5808 5805 5800 5796 5793 5788 5784 5783 5780 5777 5773 5766 5761 5760 5759 5754 5748 5742 5738 5733 5729 5726
5828 5836 5849 5861 5867 5870 5871 5869 5868 5872 5877 5880 5879 5879 5879 5876 5873 5871 5870 5869 5871 5874 5873 5869 5867 5864 5861 5858 5854 5850 5847 5843 5840 5837 5832 5827 5824 5819 5813 5811 5808 5803 5800 5796 5792 5786 5782 5780 5779 5776 5774 5770 5763 5758 5756 5754 5750 5745 5738 5733 5729 5725 5722
5815 5822 5831 5840 5847 5854 5857 5852 5850 5853 5861 5870 5871 5868 5869 5867 5863 5860 5861 5863 5867 5867 5864 5862 5861 5857 5854 5851 5848 5844 5841 5838 5834 5830 5825 5822 5818 5814 5809 5805 5801 5797 5794 5790 5785 5779 5775 5774 5770 5767 5767 5766 5761 5756 5752 5749 5745 5741 5735 5730 5725 5720 5717
5805 5809 5815 5820 5827 5837 5840 5837 5832 5827 5828 5842 5854 5857 5857 5857 5853 5849 5851 5857 5860 5859 5856 5854 5852 5849 5846 5844 5841 5838 5834 5831 5827 5822 5818 5815 5812 5807 5802 5797 5794 5789 5785 5782 5778 5774 5770 5767 5762 5759 5759 5760 5756 5750 5746 5743 5739 5735 5731 5726 5721 5716 5713
5797 5801 5805 5808 5812 5820 5827 5831 5828 5812 5801 5814 5835 5845 5847 5846 5843 5841 5844 5850 5853 5852 5850 5847 5843 5840 5838 5835 5833 5831 5827 5821 5816 5812 5809 5807 5804 5800 5795 5791 5787 5782 5778 5776 5773 5769 5766 5761 5756 5754 5754 5754 5750 5744 5739 5736 5732 5728 5725 5721 5716 5712 5708
5787 5790 5794 5797 5801 5806 5814 5824 5823 5805 5789 5794 5811 5824 5829 5827 5825 5826 5833 5839 5843 5843 5840 5837 5834 5831 5828 5827 5825 5822 5818 5812 5807 5804 5801 5799 5796 5793 5789 5785 5781 5776 5773 5770 5767 5764 5760 5756 5751 5750 5749 5747 5743 5738 5733 5728 5724 5720 5718 5714 5710 5706 5702
5778 5781 5784 5789 5793 5795 5800 5809 5811 5800 5789 5788 5792 5801 5809 5809 5804 5806 5815 5823 5831 5834 5832 5827 5824 5821 5819 5818 5815 5811 5808 5804 5799 5796 5793 5789 5787 5784 5781 5779 5776 5772 5767 5765 5763 5760 5756 5751 5748 5747 5745 5742 5738 5733 5727 5721 5717 5716 5714 5711 5707 5702 5696
5769 5772 5775 5780 5783 5784 5785 5791 5794 5791 5790 5790 5786 5785 5794 5800 5798 5797 5800 5806 5814 5820 5819 5815 5813 5811 5810 5808 5803 5799 5798 5795 5791 5788 5783 5779 5776 5773 5769 5769 5769 5767 5764 5761 5759 5757 5754 5751 5747 5744 5741 5737 5732 5729 5723 5716 5714 5714 5712 5708 5704 5699 5695
5759 5764 5769 5772 5774 5773 5772 5774 5777 5778 5780 5784 5781 5774 5777 5787 5793 5792 5790 5790 5795 5799 5799 5796 5795 5796 5798 5796 5792 5790 5790 5786 5781 5778 5775 5771 5768 5763 5758 5755 5756 5758 5757 5754 5751 5752 5754 5753 5748 5745 5741 5733 5725 5723 5720 5716 5714 5712 5708 5703 5699 5695 5692
5751 5755 5761 5764 5764 5764 5762 5763 5764 5763 5762 5765 5769 5767 5766 5773 5781 5784 5781 5780 5782 5783 5783 5783 5782 5782 5785 5785 5782 5782 5782 5778 5773 5769 5766 5763 5761 5758 5753 5747 5744 5743 5742 5742 5741 5743 5746 5746 5744 5743 5741 5733 5723 5716 5713 5711 5710 5708 5703 5698 5694 5690 5687
5744 5746 5750 5755 5759 5759 5755 5752 5749 5746 5744 5748 5755 5759 5760 5763 5769 5774 5774 5773 5772 5772 5773 5774 5774 5774 5775 5775 5775 5775 5774 5771 5767 5764 5761 5758 5756 5753 5749 5745 5740 5736 5733 5731 5732 5734 5735 5734 5732 5732 5733 5730 5723 5715 5709 5705 5703 5700 5696 5693 5689 5685 5681